Torna al catalogo

STARLINK-34199

AttivoComunicazioniVLEO
NORAD 64924·PAYLOAD·🇺🇸 United States

Lanciato Jul 26, 2025 da Cape Canaveral Space Force Station

Loading…

Prossimi Passaggi (prossime 24 ore)

TLE

AggiornatoSource: CelesTrak SupGP

Epoca: Sep 14, 2026, 21:32 UTC

1 64924C 25157W   26257.89770833 -.00002476  00000+0 -79583-4 0  2575
2 64924  53.1577 185.0983 0001331  90.6058  14.7930 15.31712580    13

Traccia STARLINK-34199 in tempo reale con AllMySat

Download on the App Store